Flag for Portugal Weather past 2 weeks in Guimarães, Portugal

Now
55 °F

Cool.


Feels Like: 53 °F
Forecast: N/A
Wind: 8 mph from Northwest

Location: Porto / Pedras Rubras

Current Time: Mar 28, 2015 at 7:28:19 PM

Latest Report: Mar 28, 2015 at 6:00 PM


Visibility: N/A

Pressure: 30.47 "Hg

Humidity: 78%

Dew point: 48 °F

Location of GuimarãesLocation

Historic Weather in Guimarães — Graph

°F

Guimarães temperature yesterday

Maximum temperature yesterday: 59 °F (at 1:00 PM)
Minimum temperature yesterday: 50 °F (at 10:00 PM)
Average temperature yesterday: 55 °F

Past Weeks' High & Low Weather Summary

 TemperatureHumidityPressure
High70 °F (Mar 20, 1:00 PM)94% (Mar 27, 2:00 AM)30.53 "Hg (Mar 27, 2:00 AM)
Low39 °F (Mar 15, 5:00 AM)29% (Mar 14, 11:00 AM)29.72 "Hg (Mar 20, 5:00 PM)
Average54 °F60%30.05 "Hg
* Reported Mar 13 6:00 PM — Mar 28 6:00 PM, Guimarães, Weather by CustomWeather, © 2015

Note: Actual official high and low records may vary slightly from our data, if they occured in-between our weather recording intervals... More about our weather records

Advertising

Guimarães weather history for previous 24 hours

 ConditionsComfort  
Time TempWeatherWind HumidityBarometerVisibility
6:00 PM
Sat, Mar 28
55 °FCool.8 mph78%30.47 "HgN/A
5:00 PM57 °FCool.7 mph72%30.47 "HgN/A
4:00 PM57 °FCool.10 mph72%30.48 "HgN/A
3:00 PM57 °FCool.12 mph70%30.50 "HgN/A
2:00 PM59 °FCool.8 mph66%30.49 "HgN/A
1:00 PM60 °FCool.2 mph65%30.50 "HgN/A
12:00 PM58 °FCool.3 mph72%30.51 "HgN/A
11:00 AM54 °FCool.6 mph83%30.53 "HgN/A
10:00 AM52 °FCool.5 mph94%30.52 "HgN/A
9:00 AM50 °FCool.3 mph94%30.52 "HgN/A
8:00 AM49 °FCool.2 mph94%30.50 "HgN/A
7:00 AM48 °FCool.2 mph93%30.48 "HgN/A
6:00 AM48 °FCool.3 mph93%30.49 "HgN/A
5:00 AM50 °FCool.3 mph93%30.47 "HgN/A
4:00 AM51 °FCool.3 mph92%30.47 "HgN/A
2:00 AM52 °FCool.6 mph93%30.48 "HgN/A
1:00 AM52 °FCool.6 mph93%30.49 "HgN/A
12:00 AM48 °FCool.2 mph92%30.49 "HgN/A
11:00 PM
Fri, Mar 27
50 °FCool.2 mph92%30.49 "HgN/A
10:00 PM50 °FCool.2 mph91%30.49 "HgN/A
8:00 PM53 °FCool.5 mph88%30.48 "HgN/A
7:00 PM54 °FCool.5 mph83%30.47 "HgN/A
Weather by CustomWeather, © 2015

See weather overviewHow to use our weather pages